Hourly Weather Kozlovka

Today, 30 October, Friday

Time Temperature Precipitation Wind Pressure Humidity
00:00 +8°C° 0 mm 4 mps 747 mmHg 66%
01:00 +8°C° 0 mm 4 mps 746 mmHg 66%
02:00 +8°C° 0 mm 4 mps 746 mmHg 67%
03:00 +8°C° 0 mm 4 mps 746 mmHg 73%
04:00 +8°C° 0.2 mm 4 mps 746 mmHg 75%
05:00 +8°C° 0.2 mm 4 mps 745 mmHg 76%
06:00 +8°C° 0.2 mm 4 mps 745 mmHg 77%
07:00 +8°C° 0.1 mm 5 mps 745 mmHg 77%
08:00 +8°C° 0.1 mm 5 mps 745 mmHg 76%
09:00 +8°C° 0.1 mm 5 mps 745 mmHg 76%
10:00 +8°C° 1 mm 5 mps 745 mmHg 80%
11:00 +8°C° 1 mm 4 mps 744 mmHg 84%
12:00 +8°C° 1 mm 4 mps 744 mmHg 89%
13:00 +8°C° 0.9 mm 4 mps 744 mmHg 90%
14:00 +8°C° 0.9 mm 4 mps 744 mmHg 91%
15:00 +8°C° 0.9 mm 4 mps 744 mmHg 92%
16:00 +8°C° 0.5 mm 4 mps 744 mmHg 92%
17:00 +8°C° 0.5 mm 4 mps 743 mmHg 92%
18:00 +8°C° 0.5 mm 4 mps 743 mmHg 92%
19:00 +8°C° 0.6 mm 4 mps 743 mmHg 91%
20:00 +10°C° 0.6 mm 4 mps 743 mmHg 90%
21:00 +10°C° 0.6 mm 4 mps 743 mmHg 89%
22:00 +10°C° 0.2 mm 4 mps 743 mmHg 90%
23:00 +10°C° 0.2 mm 3 mps 743 mmHg 90%

Tomorrow, 31 October, Saturday

Time Temperature Precipitation Wind Pressure Humidity
00:00 +9°C° 0.2 mm 3 mps 742 mmHg 91%
01:00 +10°C° 0 mm 3 mps 742 mmHg 93%
02:00 +10°C° 0 mm 2 mps 742 mmHg 95%
03:00 +10°C° 0 mm 2 mps 742 mmHg 96%
04:00 +10°C° 0 mm 2 mps 742 mmHg 96%
05:00 +10°C° 0 mm 2 mps 742 mmHg 97%
06:00 +10°C° 0 mm 2 mps 742 mmHg 97%
07:00 +10°C° 0 mm 2 mps 742 mmHg 96%
08:00 +11°C° 0 mm 1 mps 742 mmHg 95%
09:00 +11°C° 0 mm 1 mps 743 mmHg 94%
10:00 +12°C° 0 mm 1 mps 743 mmHg 91%
11:00 +12°C° 0 mm 1 mps 743 mmHg 89%
12:00 +13°C° 0 mm 1 mps 743 mmHg 86%
13:00 +13°C° 0 mm 1 mps 743 mmHg 85%
14:00 +13°C° 0 mm 1 mps 743 mmHg 84%
15:00 +13°C° 0 mm 1 mps 743 mmHg 83%
16:00 +13°C° 0 mm 1 mps 743 mmHg 86%
17:00 +12°C° 0 mm 1 mps 743 mmHg 88%
18:00 +12°C° 0 mm 2 mps 743 mmHg 91%
19:00 +12°C° 0 mm 2 mps 744 mmHg 90%
20:00 +11°C° 0 mm 3 mps 744 mmHg 89%
21:00 +11°C° 0 mm 3 mps 744 mmHg 88%
22:00 +11°C° 0.7 mm 4 mps 744 mmHg 89%
23:00 +12°C° 0.7 mm 5 mps 744 mmHg 90%

Day after tomorrow, 1 November, Sunday

Time Temperature Precipitation Wind Pressure Humidity
00:00 +11°C° 0.7 mm 6 mps 743 mmHg 91%
01:00 +11°C° 0.1 mm 7 mps 743 mmHg 89%
02:00 +11°C° 0.1 mm 7 mps 743 mmHg 88%
03:00 +11°C° 0.1 mm 7 mps 743 mmHg 86%
04:00 +10°C° 0.1 mm 7 mps 743 mmHg 85%
05:00 +10°C° 0.1 mm 6 mps 743 mmHg 85%
06:00 +9°C° 0.1 mm 6 mps 743 mmHg 84%
07:00 +10°C° 0.1 mm 6 mps 743 mmHg 81%
08:00 +10°C° 0.1 mm 6 mps 744 mmHg 79%
09:00 +10°C° 0.1 mm 6 mps 744 mmHg 76%
10:00 +10°C° 0.8 mm 6 mps 744 mmHg 80%
11:00 +10°C° 0.8 mm 6 mps 745 mmHg 84%
12:00 +10°C° 0.8 mm 5 mps 745 mmHg 88%
13:00 +10°C° 0.2 mm 5 mps 745 mmHg 85%
14:00 +11°C° 0.2 mm 4 mps 745 mmHg 82%
15:00 +12°C° 0.2 mm 4 mps 745 mmHg 79%
16:00 +11°C° 0 mm 4 mps 745 mmHg 82%
17:00 +10°C° 0 mm 4 mps 746 mmHg 85%
18:00 +10°C° 0 mm 4 mps 746 mmHg 89%
19:00 +8°C° 0 mm 4 mps 746 mmHg 89%
20:00 +8°C° 0 mm 4 mps 746 mmHg 90%
21:00 +7°C° 0 mm 4 mps 746 mmHg 91%
22:00 +7°C° 0 mm 4 mps 746 mmHg 90%
23:00 +8°C° 0 mm 3 mps 746 mmHg 88%

2 November, Monday

Time Temperature Precipitation Wind Pressure Humidity
00:00 +7°C° 0 mm 3 mps 746 mmHg 86%
01:00 +7°C° 0 mm 3 mps 746 mmHg 83%
02:00 +7°C° 0 mm 3 mps 746 mmHg 80%
03:00 +7°C° 0 mm 3 mps 746 mmHg 77%
04:00 +6°C° 0 mm 4 mps 746 mmHg 74%
05:00 +6°C° 0 mm 4 mps 746 mmHg 71%
06:00 +6°C° 0 mm 5 mps 746 mmHg 67%
07:00 +6°C° 0.1 mm 5 mps 746 mmHg 69%
08:00 +7°C° 0.1 mm 5 mps 746 mmHg 71%
09:00 +7°C° 0.1 mm 5 mps 747 mmHg 73%
10:00 +8°C° 0.1 mm 5 mps 747 mmHg 75%
11:00 +9°C° 0.1 mm 5 mps 747 mmHg 77%
12:00 +9°C° 0.1 mm 5 mps 747 mmHg 79%
13:00 +10°C° 0 mm 5 mps 747 mmHg 77%
14:00 +12°C° 0 mm 5 mps 747 mmHg 76%
15:00 +12°C° 0 mm 5 mps 747 mmHg 75%
16:00 +12°C° 0.1 mm 5 mps 747 mmHg 78%
17:00 +10°C° 0.1 mm 5 mps 747 mmHg 81%
18:00 +9°C° 0.1 mm 5 mps 747 mmHg 84%
19:00 +9°C° 0.2 mm 5 mps 748 mmHg 83%
20:00 +9°C° 0.2 mm 6 mps 748 mmHg 81%
21:00 +9°C° 0.2 mm 6 mps 748 mmHg 80%
22:00 +9°C° 0.1 mm 5 mps 748 mmHg 84%
23:00 +8°C° 0.1 mm 5 mps 749 mmHg 87%

3 November, Tuesday

Time Temperature Precipitation Wind Pressure Humidity
00:00 +8°C° 0.1 mm 4 mps 749 mmHg 90%
01:00 +8°C° 0 mm 4 mps 749 mmHg 91%
02:00 +7°C° 0 mm 4 mps 749 mmHg 92%
03:00 +7°C° 0 mm 4 mps 749 mmHg 93%
04:00 +8°C° 0 mm 3 mps 750 mmHg 93%
05:00 +8°C° 0 mm 3 mps 750 mmHg 93%
06:00 +7°C° 0 mm 3 mps 750 mmHg 94%
07:00 +8°C° 0 mm 3 mps 751 mmHg 91%
08:00 +9°C° 0 mm 3 mps 751 mmHg 89%
09:00 +9°C° 0 mm 3 mps 751 mmHg 87%
10:00 +10°C° 0 mm 3 mps 752 mmHg 82%
11:00 +12°C° 0 mm 3 mps 752 mmHg 76%
12:00 +13°C° 0 mm 4 mps 752 mmHg 71%
13:00 +13°C° 0 mm 4 mps 752 mmHg 71%
14:00 +13°C° 0 mm 4 mps 752 mmHg 71%
15:00 +13°C° 0 mm 4 mps 752 mmHg 71%
16:00 +12°C° 0 mm 3 mps 752 mmHg 76%
17:00 +11°C° 0 mm 3 mps 752 mmHg 81%
18:00 +10°C° 0 mm 3 mps 752 mmHg 85%
19:00 +10°C° 0 mm 3 mps 752 mmHg 85%
20:00 +10°C° 0 mm 3 mps 753 mmHg 84%
21:00 +10°C° 0 mm 3 mps 753 mmHg 84%
22:00 +9°C° 0 mm 3 mps 753 mmHg 84%
23:00 +9°C° 0 mm 3 mps 753 mmHg 84%

4 November, Wednesday

Time Temperature Precipitation Wind Pressure Humidity
00:00 +9°C° 0 mm 3 mps 753 mmHg 84%
01:00 +8°C° 0 mm 2 mps 753 mmHg 87%
02:00 +8°C° 0 mm 2 mps 753 mmHg 90%
03:00 +7°C° 0 mm 2 mps 753 mmHg 93%
04:00 +7°C° 0 mm 2 mps 753 mmHg 93%
05:00 +7°C° 0 mm 2 mps 753 mmHg 93%
06:00 +6°C° 0 mm 2 mps 753 mmHg 93%
07:00 +7°C° 0 mm 2 mps 753 mmHg 89%
08:00 +7°C° 0 mm 2 mps 754 mmHg 85%
09:00 +8°C° 0 mm 3 mps 754 mmHg 81%
10:00 +9°C° 0 mm 3 mps 754 mmHg 75%
11:00 +10°C° 0 mm 3 mps 754 mmHg 68%
12:00 +11°C° 0 mm 3 mps 753 mmHg 62%
13:00 +11°C° 0 mm 4 mps 753 mmHg 60%
14:00 +11°C° 0 mm 4 mps 753 mmHg 58%
15:00 +12°C° 0 mm 4 mps 753 mmHg 57%
16:00 +10°C° 0 mm 4 mps 753 mmHg 63%
17:00 +9°C° 0 mm 3 mps 753 mmHg 69%
18:00 +8°C° 0 mm 3 mps 753 mmHg 75%
19:00 +8°C° 0 mm 3 mps 753 mmHg 76%
20:00 +8°C° 0 mm 3 mps 753 mmHg 78%
21:00 +7°C° 0 mm 3 mps 753 mmHg 79%
22:00 +7°C° 0 mm 3 mps 753 mmHg 81%
23:00 +7°C° 0 mm 3 mps 753 mmHg 82%
Show more